Showing default

FLOCK 4H 34, 66737

Orbit data source: Space-Track

FLOCK 4H 34, 66737 is a payload satellite owned by Planet (US) in SSO that was launched on Fri, 28 Nov 2025 UTC via an FALCON 9 launch vehicle from the Air Force Western Test Range (AFWTR). Payload-class satellites include a variety of spacecraft equipped with specific instruments for various scientific and technological missions. These include communications satellites like Starlink; space stations such as the ISS; scientific satellites like the Hubble; Earth observation satellites from companies like Planet Labs, Umbra, and HawkEye 360; GPS; miniature CubeSats for education and research; and military/defense satellites.

Loading next visibility...
Identifier
66737, 2025-276BZ
Orbit
SSO
Country
Flag of USUS
Related business
Manufacturer
Planet
Mission
Operational Commercial Imaging
Bus & Motor
CUBESAT 3U, Unknown motor
Mass
5.7 kg wet, 5.7 kg dry
Launch date (UTC)
2025-11-28 (4 months ago)
Launch vehicle
FALCON 9
Launch site
Air Force Western Test Range (AFWTR)
Object type
Payload
Rocket body
Debris
Shape & HBR
Box + 2 Pan, 1.0 m
Radar Cross Section
0.072 m²

Expand to show TLE details & history
Last TLE update: 9 hours ago

TLE from 9 hours ago
0 FLOCK 4H 34
1 66737U 25276BZ  26095.44409534  .00007261  00000-0  34359-3 0  9999
2 66737  97.4266 170.4117 0002715 164.3967 195.7352 15.19653907 18633
Epoch: 2026-04-05T10:39Z
TLE epoch observation values (Epoch: 2026-04-05T10:39:29.837Z)
Latitude
-0.00002°
Longitude
176.78795°
Altitude
511.775 km
Speed
7.607 km/s
True Right ascension
11h 21m 38s
True Declination
0° 00' 00"
Sunlit
Object was in full shadow at epoch
Visualization orbit readout
Latitude
Unknown
Longitude
Unknown
Altitude
Unknown
Speed
Unknown
Apparent Right ascension
Unknown
Apparent Declination
Unknown
Sunlit
N/A
Visualization observer readout
Local Sidereal Time
01:55:13
Azimuth
Unknown
Elevation
Unknown
Doppler factor
Unknown
Orbital elements
Apogee altitude
505.721 km
Perigee altitude
501.984 km
Semi-major axis
6,881.99 km
Eccentricity
0.00027
Inclination
97.4266°
RAAN
170.4117°
Arg. of periapsis
164.3967°
True anomaly
195.72677°
Mean anomaly
195.7352°
Eccentric anomaly
195.73098°
Mean motion
3.80165 °/min
Orbital period
94.7 mins
BSTAR
0.00034359
Loading maneuver chart data...
Computing Atmospheric mass density...
Loading historical data...
Loading historical data...
Loading historical data...
Loading historical data...
Loading historical data...
Loading historical data...
Loading historical data...

Documentation

Showing up to 5 results
|